Granada, Spain

7:56 PM CET on February 27, 2017 (GMT +0100)
Granada

Weather History for LEGR - November, 2012

Change the Weather History Date:

Friday, November 2, 2012

  Actual Average Record
Temperature  
Mean Temperature 52 °F -  
Max Temperature 62 °F 60 °F 80 °F (1996)
Min Temperature 42 °F 38 °F 32 °F (2000)
Degree Days  
Heating Degree Days 13    
Growing Degree Days 2 (Base 50)    
Moisture  
Dew Point 49 °F    
Average Humidity 83    
Maximum Humidity 100    
Minimum Humidity 52    
Precipitation  
Precipitation 0.08 in - - ()
Sea Level Pressure  
Sea Level Pressure 30.04 in    
Wind  
Wind Speed 1 mph ()    
Max Wind Speed 6 mph    
Max Gust Speed -    
Visibility 6.1 miles    
Events Fog , Rain    
Averages and records for this station are not official NWS values.
T = Trace of Precipitation, MM = Missing Value Source: Averaged Metar Reports

Daily Weather History Graph

Daily Weather History Graph

Search for Another Location

Airport or City:

Trip Planner

Search our weather history database for the weather conditions in past years. The results will help you decide how hot, cold, wet, or windy it might be!

Date:

Astronomy

Nov. 02, 2012 Rise Set
Actual Time 7:40 AM CET 6:16 PM CET
Civil Twilight 7:13 AM CET 6:43 PM CET
Nautical Twilight 6:42 AM CET 7:13 PM CET
Astronomical Twilight 6:12 AM CET 7:44 PM CET
Moon 8:53 PM CET (11/2) 10:47 AM CET (11/2)
Length of Visible Light 11h 29m
Length of Day
10h 35m
Waning Gibbous, 89% of the Moon is Illuminated
Nov 2
Waning Gibbous
Nov 7
Last Quarter
Nov 13
New
Nov 20
First Quarter
Nov 28
Full

Hourly Weather History & Observations

Time (CET) Temp. Dew Point Humidity Pressure Visibility Wind Dir Wind Speed Gust Speed Precip Events Conditions
1:00 AM 48 °F 46 °F 89% 30.00 in 7 mi SW 1.2 mph - -  
6:00 AM 44.6 °F 44.6 °F 100% 30.01 in 5.6 mi Calm Calm - N/A   Partly Cloudy
6:30 AM 44.6 °F 42.8 °F 93% 30.01 in 5.6 mi Calm Calm - N/A   Partly Cloudy
7:00 AM 42 °F 41 °F 93% 30.06 in 5 mi SE 1.2 mph - -   Mist
7:00 AM 42.8 °F 42.8 °F 100% 30.01 in 5.6 mi Calm Calm - N/A   Partly Cloudy
7:30 AM 42.8 °F 42.8 °F 100% 30.01 in 4.3 mi Variable 1.2 mph - N/A   Partly Cloudy
8:00 AM 42.8 °F 42.8 °F 100% 30.04 in 4.3 mi Calm Calm - N/A   Partly Cloudy
8:30 AM 42.8 °F 42.8 °F 100% 30.06 in 4.3 mi Calm Calm - N/A   Scattered Clouds
9:00 AM 44.6 °F 44.6 °F 100% 30.06 in 2.5 mi Calm Calm - N/A Fog Patches of Fog
9:30 AM 48.2 °F 48.2 °F 100% 30.06 in 2.5 mi Calm Calm - N/A Fog Patches of Fog
10:00 AM 50.0 °F 48.2 °F 94% 30.06 in 6.2 mi Calm Calm - N/A Fog Patches of Fog
10:30 AM 53.6 °F 50.0 °F 88% 30.09 in 6.2 mi Calm Calm - N/A   Partly Cloudy
11:00 AM 55.4 °F 51.8 °F 88% 30.09 in 6.2 mi Calm Calm - N/A   Partly Cloudy
11:30 AM 57.2 °F 51.8 °F 82% 30.06 in 6.2 mi Calm Calm - N/A   Partly Cloudy
12:00 PM 59.0 °F 51.8 °F 77% 30.06 in 6.2 mi Calm Calm - N/A   Partly Cloudy
12:30 PM 60.8 °F 50.0 °F 68% 30.06 in 6.2 mi Variable 2.3 mph - N/A   Partly Cloudy
1:00 PM 61 °F 48 °F 52% 30.04 in 16 mi West 5.8 mph - -   Scattered Clouds
1:00 PM 60.8 °F 48.2 °F 63% 30.06 in 6.2 mi West 5.8 mph - N/A   Partly Cloudy
1:30 PM 60.8 °F 46.4 °F 59% 30.04 in 6.2 mi West 3.5 mph - N/A   Partly Cloudy
2:00 PM 60.8 °F 48.2 °F 63% 30.04 in 6.2 mi Variable 2.3 mph - N/A   Mostly Cloudy
2:30 PM 60.8 °F 48.2 °F 63% 30.04 in 6.2 mi WNW 3.5 mph - N/A   Mostly Cloudy
3:00 PM 60.8 °F 48.2 °F 63% 30.04 in 6.2 mi WNW 3.5 mph - N/A   Mostly Cloudy
3:30 PM 62.6 °F 48.2 °F 59% 30.04 in 6.2 mi Calm Calm - N/A   Mostly Cloudy
4:00 PM 62.6 °F 48.2 °F 59% 30.04 in 6.2 mi Calm Calm - N/A   Mostly Cloudy
4:30 PM 62.6 °F 48.2 °F 59% 30.04 in 6.2 mi Calm Calm - N/A   Mostly Cloudy
5:00 PM 62.6 °F 48.2 °F 59% 30.04 in 6.2 mi Calm Calm - N/A   Mostly Cloudy
5:30 PM 60.8 °F 50.0 °F 68% 30.04 in 6.2 mi Calm Calm - N/A   Mostly Cloudy
6:00 PM 59.0 °F 51.8 °F 77% 30.01 in 6.2 mi Variable 1.2 mph - N/A   Mostly Cloudy
6:30 PM 59.0 °F 53.6 °F 82% 30.04 in 6.2 mi Variable 1.2 mph - N/A   Mostly Cloudy
7:00 PM 58 °F 53 °F 76% 30.00 in 19 mi SE 2.3 mph - -   Overcast
7:00 PM 57.2 °F 53.6 °F 88% 30.04 in 6.2 mi Variable 1.2 mph - N/A   Mostly Cloudy
7:30 PM 57.2 °F 53.6 °F 88% 30.04 in 6.2 mi Variable 1.2 mph - N/A   Mostly Cloudy
8:00 PM 57.2 °F 53.6 °F 88% 30.04 in 6.2 mi Calm Calm - N/A   Mostly Cloudy
8:30 PM 57.2 °F 53.6 °F 88% 30.01 in 6.2 mi Calm Calm - N/A   Mostly Cloudy
9:00 PM 57.2 °F 53.6 °F 88% 30.01 in 6.2 mi Variable 1.2 mph - N/A   Mostly Cloudy
9:30 PM 57.2 °F 53.6 °F 88% 30.01 in 6.2 mi Variable 1.2 mph - N/A   Light Drizzle
10:00 PM 57.2 °F 55.4 °F 94% 30.01 in 5.0 mi Calm Calm - N/A Rain Light Rain
10:30 PM 55.4 °F 53.6 °F 94% 30.01 in 3.7 mi Variable 1.2 mph - N/A Rain Rain
10:38 PM 55.4 °F 55.4 °F 100% 30.01 in 2.5 mi Calm Calm - N/A Rain Light Rain
10:52 PM 55.4 °F 55.4 °F 100% 30.01 in 3.7 mi Calm Calm - N/A Rain Light Rain
11:00 PM 55.4 °F 55.4 °F 100% 30.01 in 3.7 mi Calm Calm - N/A Rain Light Rain